HRRL team results for Salisbury 10 mile - 8th April 2018

Race No Name Time Gender hrrl team hrrl pos team seq tm sco tm st indiv sco Category Cat Pos Chip Time
248 Julie Humphries 01:06:23 f Alton 6 A 86 c 97.4 FV45 2 01:06:18
357 Vanessa Lowe 01:14:27 f Alton 33       83.6 FV45 9 01:14:04
894 Diane  Byrne 01:18:48 f Alton 47       76.4 FV45 15 01:18:31
560 Nichola Gordon-Jones 01:19:27 f Alton 49 B 184 c 75.4 FSnr 18 01:19:04
66 Fran Light 01:23:27 f Alton 66       66.7 FV45 21 01:23:07
172 Esther Park  01:23:43 f Alton 69       65.1 FV35 27 01:23:17
258 Jane Scrase 01:25:55 f Alton 78       60.5 FSnr 25 01:25:39
511 Diane Urquhart 01:42:14 f Alton 156       20.5 FV45 75 01:41:50
682 Richard Taylor 01:07:24 m Alton 82 A 459 c 70.2 MV40 27 01:07:09
561 Jamie Kilner-Smith 01:11:57 m Alton 123       55.1 MV40 45 01:11:42
448 Michael Sennett 01:12:05 m Alton 125       54.4 MV50 24 01:11:50
710 Philip Scrase 01:12:47 m Alton 129       52.9 MV50 25 01:12:33
513 John Arbury 01:20:27 m Alton 194 B 874 c 29.0 MV60 86 01:20:06
557 Jim Armitage 01:23:14 m Alton 213       22.1 MV50 54 01:22:51
262 Stephen Clow 01:24:35 m Alton 224       18.0 MV50 59 01:24:18
512 Ian Urquhart 01:29:03 m Alton 243       11.0 MV50 68 01:28:44
252 David Molyneux 01:31:01 m Alton 246       9.9 MV40 120 01:30:37
487 Richard Scrase 01:36:11 m Alton 256       6.3 MSnr 139 01:35:47
253 Chris Dewey 01:01:48 m Andover 32 A 496 i 88.6 MV50 3 01:01:44
302 Steve Brett 01:02:50 m Andover 38       86.4 MV40 9 01:02:46
784 Andrew Caldwell 01:14:44 m Andover 152       44.5 MV50 36 01:14:32
307 Elizabeth Steward 01:09:20 f Denmead 13 A 93 c 93.8 FSnr 6 01:09:11
439 Kirsty Bailey 01:16:15 f Denmead 39       80.5 FV35 17 01:15:53
49 Daniella Offer 01:16:48 f Denmead 41       79.5 FV45 11 01:16:25
589 Suzanne  Richardson 01:18:45 f Denmead 46 B 243 c 76.9 FV35 18 01:18:22
455 Anita Crawley 01:22:29 f Denmead 62       68.7 FV45 19 01:21:46
566 Lisa-Marie Peckover 01:36:57 f Denmead 135       31.3 FSnr 53 01:36:02
429 Clare Welch 01:36:57 f Denmead 136       30.8 FV35 74 01:36:02
413 Tracey Crank 01:43:18 f Denmead 160       18.5 FV55 24 01:42:22
580 Julian Manning 00:54:42 m Denmead 2 A 112 c 99.6 MV40 1 00:54:40
623 Matthew Cheyney 01:00:56 m Denmead 26       90.8 MSnr 26 01:00:51
450 Adam Chant 01:02:55 m Denmead 39       86.0 MSnr 32 01:02:50
619 Lee Weeks 01:03:52 m Denmead 45       83.8 MV40 12 01:03:49
727 Chris Cornwell 01:04:02 m Denmead 47 B 275 c 83.1 MSnr 36 01:03:50
567 Gary Armstrong 01:05:31 m Denmead 60       78.3 MSnr 46 01:05:26
428 Paul Welch 01:05:42 m Denmead 61       77.9 MV40 17 01:05:36
328 Daniel Shawyer 01:10:11 m Denmead 107       61.0 MSnr 70 01:10:00
298 Nicholas Minter 01:10:35 m Denmead 110 C 686 c 59.9 MSnr 73 01:10:22
833 Martin Shaw 01:14:03 m Denmead 142       48.2 MV40 51 01:13:49
270 Gary McCawley 01:20:53 m Denmead 198       27.6 MV50 90 01:20:10
823 Graham Clarke 01:27:16 m Denmead 236       13.6 MV70 4 01:26:49
440 Terry Aked 01:27:39 m Denmead 238       12.9 MV40 111 01:27:15
292 Lawrence Bacon 01:30:18 m Denmead 244       10.7 MV50 73 01:29:25
48 Mike Nolan 01:34:08 m Denmead 254       7.0 MV40 126 01:33:14
701 Brian Harris 01:56:52 m Denmead 269       1.5 MV70 5 01:55:56
611 Jenny Astall 01:23:26 f Eastleigh 65 A 220 c 67.2 FV35 25 01:22:59
796 Kate Randall-Coles 01:24:18 f Eastleigh 71       64.1 FV35 29 01:23:30
699 Rebecca Roberts 01:27:04 f Eastleigh 84       57.4 FV35 41 01:26:15
839 Claire Deacon 01:30:17 f Eastleigh 102 B 322 c 48.2 FV55 14 01:29:27
799 June Roberts 01:30:29 f Eastleigh 104       47.2 FV55 16 01:29:37
720 Lily Coull 01:32:48 f Eastleigh 116       41.0 FSnr 39 01:32:14
83 Frankie Colling 01:42:02 f Eastleigh 155       21.0 FV45 74 01:41:08
719 Angus Coull 01:07:04 m Eastleigh 76 A 530 c 72.4 MV40 26 01:06:51
686 Jonathan Wren 01:09:29 m Eastleigh 100       63.6 MSnr 65 01:09:17
819 Peter Robbins 01:14:52 m Eastleigh 154       43.8 MV40 58 01:14:19
667 Jon Diaper 01:21:03 m Eastleigh 200       26.8 MV50 47 01:20:31
788 Daniele Franceschini 01:21:07 m Eastleigh 201 B 875 c 26.5 MV60 11 01:20:35
795 Spencer Meyer 01:23:30 m Eastleigh 215       21.3 MV40 100 01:22:58
814 Mark Parkin 01:25:02 m Eastleigh 226       17.3 MV60 15 01:24:15
781 Paul Backhouse 01:26:43 m Eastleigh 233       14.7 MV50 62 01:25:52
856 Paul  Eade  01:32:21 m Eastleigh 251       8.1 MV50 79 01:31:30
451 Paul Hammond 01:42:24 m Eastleigh 262       4.0 MV60 26 01:41:30
420 Matthew Collins 01:57:01 m Eastleigh 270       1.1 MSnr 147 01:56:10
706 Melanie  Seddon  01:13:06 f Fareham 29 A 147 c 85.6 FV35 12 01:12:50
205 Paula Williams 01:14:50 f Fareham 35       82.6 FV35 16 01:14:40
750 Kirsten Thatcher  01:26:58 f Fareham 83       57.9 FV35 40 01:26:14
846 Julie Ockwell 01:27:57 f Fareham 87 B 282 c 55.9 FV35 45 01:26:46
579 Anita Foy 01:28:10 f Fareham 90       54.4 FV55 11 01:27:00
746 Debbie Taylor 01:30:32 f Fareham 105       46.7 FV45 41 01:30:00
742 Emma Watson 01:31:01 f Fareham 107       45.6 FSnr 36 01:30:17
758 Marie Shawyer 01:34:07 f Fareham 122       37.9 FV35 64 01:33:40
716 Sally Toye 01:49:27 f Fareham 171       12.8 FV55 28 01:48:05
563 Jonathan Isherwood 01:01:09 m Fareham 29 A 234 c 89.7 MV40 6 01:01:05
494 David Fleet 01:04:38 m Fareham 53       80.9 MSnr 40 01:04:34
578 Andy Foy 01:05:22 m Fareham 59       78.7 MV40 16 01:05:17
771 Brian Wright 01:08:26 m Fareham 93       66.2 MV40 31 01:08:10
752 Nick White 01:09:39 m Fareham 102 B 479 c 62.9 MSnr 67 01:09:18
855 Ian Edwards 01:10:36 m Fareham 112       59.2 MSnr 75 01:10:27
741 John Kidby 01:12:58 m Fareham 132       51.8 MV50 27 01:12:48
600 Gareth  Travis 01:13:00 m Fareham 133       51.5 MSnr 90 01:12:51
333 Trevor Kettle 01:13:00 m Fareham 134       51.1 MV50 28 01:12:44
722 Paul Turner 01:14:18 m Fareham 148       46.0 MV50 35 01:14:09
743 Simon Martin 01:14:25 m Fareham 150       45.2 MV40 56 01:14:07
868 Steve  Askew 01:17:21 m Fareham 173       36.8 MV50 54 01:16:42
718 Andrew Hillam 01:19:10 m Fareham 185       32.4 MV40 75 01:18:52
735 Alex Jennings-Temple 01:19:14 m Fareham 186       32.0 MSnr 77 01:18:58
396 Jeremy Rogers 01:22:43 m Fareham 212       22.4 MV40 98 01:22:24
736 Phillip Prophett 01:23:56 m Fareham 219       19.9 MV40 103 01:23:12
367 Emma Pearson 01:12:51 f Farnham 28 A 106 c 86.2 FV35 11 01:12:27
385 Emma Russ 01:15:36 f Farnham 38       81.0 FSnr 14 01:15:12
394 Eloise Stradling 01:16:18 f Farnham 40       80.0 FSnr 15 01:16:05
809 Billy Mcculloch 01:21:42 f Farnham 58 B 301 c 70.8 FV45 17 01:21:15
352 Anne  Snelson  01:23:42 f Farnham 68       65.6 FV45 24 01:23:16
380 Victoria Gow 01:51:17 f Farnham 175       10.8 FV35 102 01:50:18
807 Jackie Wilkinson 01:51:51 f Farnham 177 C 557 i 9.7 FV55 33 01:50:50
365 Susan MacKenzie 01:53:39 f Farnham 183       6.7 FV45 95 01:52:39
713 Matt Saker 01:01:52 m Farnham 33 A 182 c 88.2 MV40 7 01:01:46
224 Matthew Morgan 01:03:06 m Farnham 41       85.3 MSnr 33 01:03:00
366 Rob Gilchrist 01:04:29 m Farnham 50       82.0 MV40 14 01:04:23
354 Charles Ashby 01:05:16 m Farnham 58       79.0 MV50 10 01:05:10
373 Harvey Wickham 01:06:02 m Farnham 64 B 440 c 76.8 MV40 20 01:05:56
166 James Clarke 01:07:57 m Farnham 88       68.0 MSnr 58 01:07:43
148 Alistair Hardaway 01:12:51 m Farnham 130       52.6 MV50 26 01:12:26
806 Christopher Cramp 01:15:09 m Farnham 158       42.3 MV40 61 01:15:01
576 Keith Marshall 01:15:49 m Farnham 162 C 0 n 40.8 MV60 6 01:15:23
482 Tim Farrant 01:16:24 m Farnham 168       38.6 MV40 41 01:16:01
369 Julia  Roiz de Sa  01:20:08 f Gosport 52 A 237 c 73.8 FV35 21 01:19:40
113 Anna Clodfelter 01:25:47 f Gosport 77       61.0 FV45 29 01:24:42
24 Fiona Tomlinson 01:31:08 f Gosport 108       45.1 FV55 18 01:30:35
305 Jenny Shilling 01:33:37 f Gosport 119 B 387 c 39.5 FV65 1 01:33:03
446 Kerryanne Sawyer 01:33:39 f Gosport 120       39.0 FSnr 44 01:33:05
871 Joanne Hopkins 01:41:01 f Gosport 148       24.6 FV35 88 01:40:25
804 Karen Morby 01:41:03 f Gosport 149       24.1 FV35 90 01:40:30
829 Debbie Humphreys 01:58:38 f Gosport 188       4.1 FV55 37 01:58:03
695 Kim Carter 01:58:38 f Gosport 189       3.6 FV55 38 01:58:04
3 Kevin Allen 01:06:58 m Gosport 74 A 572 c 73.2 MSnr 51 01:06:51
572 Miles Van der Lugt 01:16:24 m Gosport 165       39.7 MV40 69 01:16:03
324 Colin Gardner 01:16:24 m Gosport 166       39.3 MV50 39 01:15:57
128 Kieran Chaplin 01:16:24 m Gosport 167       39.0 MSnr 40 01:16:03
696 Nick Carter 01:18:24 m Gosport 179 B 771 c 34.6 MV50 65 01:17:56
340 Nicolas Boorn 01:18:42 m Gosport 181       33.8 MV40 68 01:18:15
461 Dale Poulter 01:20:39 m Gosport 195       28.7 MSnr 87 01:20:19
65 Martyn  Barnes 01:23:31 m Gosport 216       21.0 MV40 101 01:23:02
190 Richard Law 01:24:51 m Gosport 225       17.6 MSnr 130 01:24:10
847 Sam Graham 01:27:20 m Gosport 237       13.2 MSnr 134 01:26:50
688 Daniel Roiz de Sa  01:32:50 m Gosport 252       7.7 MV40 124 01:32:22
737 Steve Wood 01:43:58 m Gosport 264       3.3 MV50 86 01:43:24
23 Steve Calder 01:47:12 m Gosport 267       2.2 MV40 142 01:46:38
824 Keith Elshaw 01:54:39 m Gosport 268       1.8 MV50 88 01:54:03
257 Jane Hodge 01:21:25 f Hardley 56 A 279 c 71.8 FV55 7 01:21:04
165 Vicki Clarke 01:28:40 f Hardley 92       53.3 FSnr 29 01:28:05
877 Christine  Harris 01:36:02 f Hardley 131       33.3 FV65 3 01:35:03
574 Jan Anglim 01:53:02 f Hardley 181 B 0 n 7.7 FV65 8 01:51:49
259 Matthew Tanner 01:06:19 m Hardley 68 A 0 n 75.4 MV50 11 01:06:14
573 Mick Anglim 01:17:28 m Hardley 174       36.4 MV70 55 01:17:18
185 Caroline Leppard 01:19:39 f Hart RR 50 A 0 n 74.9 FSnr 19 01:19:07
598 Kate Maslin 01:11:15 f Hedge End 20 A 70 c 90.3 FV35 6 01:11:09
590 Marie Droniou-Bordry  01:11:43 f Hedge End 23       88.7 FV35 9 01:11:30
554 Joanne Labram 01:12:42 f Hedge End 27       86.7 FV45 8 01:12:02
387 Elizabeth Bamber 01:17:42 f Hedge End 43 B 183 c 78.5 FV45 12 01:17:12
273 Yvonne Coxhill 01:23:41 f Hedge End 67       66.2 FV45 23 01:22:53
620 Tracey Shepperd 01:24:39 f Hedge End 73       63.1 FV35 31 01:23:58
798 Sarah Butler 01:25:11 f Hedge End 75 C 301 c 62.1 FV35 33 01:24:31
527 Tracy Puttock 01:32:16 f Hedge End 112       43.1 FV45 46 01:31:11
849 Kelly Milner 01:32:25 f Hedge End 114       42.1 FV35 58 01:31:19
133 Maria Sparks 01:33:34 f Hedge End 118       40.0 FV45 47 01:32:27
882 Sarah Martin 01:35:53 f Hedge End 130       33.8 FV35 71 01:35:05
117 Jenna Shergold 01:38:53 f Hedge End 141       28.2 FV45 65 01:37:48
835 Julie Ward 01:51:04 f Hedge End 173       11.8 FV55 29 01:49:57
840 Linda Francis 01:51:05 f Hedge End 174       11.3 FV55 30 01:49:58
10 Pauline Nicholson 01:51:18 f Hedge End 176       10.3 FV55 31 01:50:25
594 Mark Chamberlain  01:00:54 m Hedge End 25 A 191 c 91.2 MSnr 25 01:00:51
596 William Baggs 01:01:02 m Hedge End 27       90.4 MSnr 27 01:00:55
35 Carlo van Leeuwen 01:04:10 m Hedge End 48       82.7 MSnr 37 01:04:03
588 Joe Amber 01:08:21 m Hedge End 91       66.9 MSnr 60 01:08:12
418 Mike Bridgeman 01:09:10 m Hedge End 98 B 441 c 64.3 MV40 36 01:09:00
592 Jordan Winbourne 01:10:11 m Hedge End 108       60.7 MSnr 71 01:09:58
46 Steve Whitehead 01:11:00 m Hedge End 113       58.8 MV40 40 01:10:49
336 Keith Sheppard 01:11:53 m Hedge End 122       55.5 MV60 3 01:11:34
762 keith spiers 01:13:47 m Hedge End 139 C 629 c 49.3 MV50 32 01:13:12
22 Alan Cowan 01:13:59 m Hedge End 141       48.5 MSnr 94 01:13:40
653 Jerome Bordry  01:14:15 m Hedge End 147       46.3 MV40 54 01:14:02
591 Chris Winbourne 01:21:19 m Hedge End 202       26.1 MV40 92 01:21:04
355 Bryan Barry 01:23:49 m Hedge End 218       20.2 MV50 56 01:23:08
374 Cliff Manton 01:25:33 m Hedge End 228       16.5 MV60 17 01:24:26
350 Robert Jones 01:40:14 m Hedge End 261       4.4 MV40 135 01:39:45
431 Trish Train 01:08:38 f IOW RR 10 A 93 c 95.4 FV45 3 01:08:30
697 Jodie Wilmott 01:14:09 f IOW RR 32       84.1 FV35 13 01:13:35
533 Louise  Dover 01:19:51 f IOW RR 51       74.4 FSnr 20 01:19:27
416 Tarnia Eldridge 01:21:17 f IOW RR 55 B 212 c 72.3 FV45 16 01:20:53
414 Zoe Sherwin 01:21:36 f IOW RR 57       71.3 FV35 22 01:20:59
715 Karen Phillips 01:30:14 f IOW RR 100       49.2 FV45 37 01:29:35
386 Julie Ray 01:30:15 f IOW RR 101       48.7 FV45 39 01:29:38
306 Julia Parker 01:30:18 f IOW RR 103       47.7 FV45 40 01:29:40
495 Bridget Keyte 01:40:01 f IOW RR 146       25.6 FV45 67 01:39:14
842 William Goozee 01:00:39 m IOW RR 22 A 184 c 92.3 MSnr 22 01:00:31
342 Cole Pearce 01:00:46 m IOW RR 24       91.5 MSnr 24 01:00:44
539 Ross Wilkes 01:03:49 m IOW RR 44       84.2 MSnr 35 01:03:42
606 Nick Kenney 01:08:30 m IOW RR 94       65.8 MV40 32 01:08:23
417 George Butler 01:09:57 m IOW RR 106 B 583 c 61.4 MSnr 69 01:09:50
698 Peter Wilmott 01:14:09 m IOW RR 144       47.4 MV50 33 01:13:35
330 Garry Sharp 01:14:19 m IOW RR 149       45.6 MV40 55 01:13:44
528 Kevin Rann 01:19:10 m IOW RR 184       32.7 MV40 73 01:18:55
857 Ivan Ward 01:21:33 m IOW RR 206       24.6 MV50 52 01:20:58
827 Ian Dyer 01:21:59 m IOW RR 211       22.8 MV40 95 01:21:21
671 Giorgio Marinelli 01:24:01 m IOW RR 220       19.5 MSnr 128 01:23:22
412 Nick  Scott-Denness 01:24:07 m IOW RR 221       19.1 MV40 104 01:23:31
216 Matthew Fletcher 01:30:21 m IOW RR 245       10.3 MV40 118 01:29:15
647 Thomas Martin 01:36:20 m IOW RR 257       5.9 MV60 24 01:35:41
103 Jackie Lloyd 01:09:12 f Liss 12 A 0 n 94.4 FV45 4 01:09:01
821 Andrew Turner 01:01:34 m Liss 31 A 0 n 89.0 MV50 2 01:01:30
100 John Collis  01:12:24 m Liss 128       53.3 MV40 47 01:12:14
881 Alice Burch 01:10:48 f Lordshill 18 A 84 c 91.3 FV35 5 01:10:43
147 Sari Giering 01:11:45 f Lordshill 24       88.2 FSnr 9 01:11:26
870 Jill White 01:17:07 f Lordshill 42       79.0 FV55 4 01:16:47
654 Diane  Mattingly 01:17:46 f Lordshill 44 B 142 c 77.9 FV45 13 01:17:23
555 Jenny Marston 01:17:58 f Lordshill 45       77.4 FSnr 16 01:17:37
615 Helen Backshell 01:20:53 f Lordshill 53       73.3 FV55 6 01:20:37
559 Lucy Fraser 01:21:14 f Lordshill 54 C 196 c 72.8 FSnr 21 01:20:54
628 Clare Satterly 01:22:26 f Lordshill 61       69.2 FV45 18 01:21:59
2 Sarah  Davis 01:26:50 f Lordshill 81       59.0 FV35 37 01:26:19
246 Katalin Sebesteny-Gyore 01:26:56 f Lordshill 82       58.5 FV35 39 01:25:53
499 Teri Pragnell 01:27:19 f Lordshill 86       56.4 FV45 31 01:26:49
131 Angela Corrie 01:28:31 f Lordshill 91       53.8 FSnr 28 01:27:44
234 Michelle Pearce 01:30:37 f Lordshill 106       46.2 FV35 53 01:29:25
651 Kirsty Rickman 01:32:18 f Lordshill 113       42.6 FV35 57 01:31:30
445 Belinda Bracegirdle 01:41:19 f Lordshill 151       23.1 FV35 92 01:40:21
545 Hannah Phillips 01:50:04 f Lordshill 172       12.3 FSnr 70 01:48:52
321 Ben Pitman 00:57:24 m Lordshill 12 A 94 c 96.0 MSnr 12 00:57:21
693 James Fanning 00:57:32 m Lordshill 14       95.2 MSnr 13 00:57:30
115 Aaron Gallimore 00:59:09 m Lordshill 17       94.1 MSnr 16 00:59:07
586 Robert Agar 01:04:32 m Lordshill 51       81.6 MSnr 38 01:04:26
204 David Milton 01:04:37 m Lordshill 52 B 297 c 81.3 MSnr 39 01:04:28
601 Alex Beaton 01:06:38 m Lordshill 69       75.0 MSnr 48 01:06:29
749 Ben Tavendale 01:07:04 m Lordshill 77       72.1 MSnr 53 01:06:57
605 Mat Pidgeon 01:09:10 m Lordshill 99       64.0 MSnr 64 01:08:59
708 Matt Lovesey 01:09:36 m Lordshill 101 C 519 c 63.2 MSnr 66 01:09:17
38 Adam Hurst 01:11:42 m Lordshill 119       56.6 MSnr 81 01:11:25
544 Chris Cook 01:12:17 m Lordshill 127       53.7 MSnr 85 01:11:59
379 Kevin Knight 01:17:17 m Lordshill 172       37.1 MV40 53 01:16:13
444 Philip Tyrrell 01:18:36 m Lordshill 180 D 855 c 34.2 MSnr 66 01:18:03
72 Chris  Lamb  01:21:54 m Lordshill 210       23.2 MV40 94 01:21:01
503 Steve Johnson 01:25:56 m Lordshill 231       15.4 MV60 19 01:25:04
256 Paul Jamieson 01:26:47 m Lordshill 234       14.3 MV50 63 01:25:44
869 Malcolm White 01:28:04 m Lordshill 241       11.8 MV50 67 01:27:11
648 Peter Lewis 01:32:17 m Lordshill 250       8.5 MV50 78 01:31:29
724 Gary Dyer 01:46:05 m Lordshill 266       2.6 MV40 140 01:45:07
687 Claire Browne 01:27:16 f Netley 85 A 311 c 56.9 FV35 42 01:26:48
571 Sarah Cook 01:27:57 f Netley 88       55.4 FV35 46 01:27:29
40 Vicki Brunink 01:37:51 f Netley 138       29.7 FV35 78 01:37:23
756 Kira Day 01:52:52 f Netley 180       8.2 FSnr 71 01:52:32
370 Edward Biddle 01:19:04 m Netley 183 A 865 c 33.1 MV40 71 01:18:44
465 Jeremy Robbins 01:24:28 m Netley 223       18.4 MV40 105 01:24:09
714 Mathew Captain 01:25:19 m Netley 227       16.9 MV40 106 01:24:59
335 Ollie Mckenzie 01:26:02 m Netley 232       15.1 MSnr 131 01:25:43
143 Chris Lewis 01:28:09 m Netley 242       11.4 MV40 115 01:27:46
138 Mark Cunningham  01:37:41 m Netley 259       5.1 MV40 130 01:36:32
732 Shaun Davey 01:37:48 m Netley 260       4.8 MV40 131 01:37:20
506 Dawn Rogers 01:29:21 f New Forest 96 A 0 n 51.3 FV55 12 01:28:56
505 Alastair Pickburn 00:55:48 m New Forest 6 A 385 i 98.2 MSnr 5 00:55:46
890 Frank Handy 01:01:16 m New Forest 30       89.3 MSnr 28 01:01:13
729 Matthew Cafferky 01:07:02 m New Forest 75       72.8 MSnr 52 01:06:55
80 Naomi Stanley 01:28:40 f OSRunners 93 A 384 i 52.8 FSnr 30 01:28:04
265 Karen Connell 01:28:40 f OSRunners 94       52.3 FV35 50 01:28:05
349 Nick Lindsay 01:08:42 m OSRunners 95 A 0 n 65.4 MSnr 61 01:08:28
142 Matthew PIllinger 01:09:52 m OSRunners 105       61.8 MSnr 68 01:09:38
690 Hannah Bliss 01:06:40 f Overton 7 A 284 i 96.9 FSnr 3 01:06:36
194 Katie Brothers  01:26:38 f Overton 80       59.5 FV35 36 01:26:18
353 Martin Groundsell 00:56:45 m Overton 10 A 74 c 96.7 MSnr 10 00:56:42
577 Leonard Passingham 00:57:29 m Overton 13       95.6 MV50 1 00:57:26
629 Sean Holmes 00:57:58 m Overton 15       94.9 MV40 2 00:57:55
105 Neil Martin 01:02:13 m Overton 36       87.1 MV40 8 01:02:09
661 Neil Glendon 01:06:17 m Overton 67 B 355 c 75.7 MV40 22 01:06:08
880 Michael Bliss 01:07:22 m Overton 81       70.6 MV50 14 01:07:18
293 Gareth Juliff 01:08:08 m Overton 89       67.6 MSnr 59 01:08:01
372 Daniel Crone 01:11:36 m Overton 118       57.0 MSnr 80 01:11:14
78 Mark Underwood 01:12:56 m Overton 131       52.2 MSnr 89 01:12:49
692 Emma Brewin 01:12:19 f PompeyJ 26 A 177 c 87.2 FSnr 12 01:12:07
526 Nicola Thomas 01:14:37 f PompeyJ 34       83.1 FV35 15 01:14:25
90 Natasha Armstrong 01:33:21 f PompeyJ 117       40.5 FV35 62 01:32:44
85 Jess Bateman 01:33:53 f PompeyJ 121 B 378 c 38.5 FSnr 45 01:32:47
683 Sarah Clarke 01:34:56 f PompeyJ 125       36.4 FV35 67 01:33:56
378 Emma Milne 01:36:15 f PompeyJ 132       32.8 FSnr 50 01:35:14
5 Kirsten Walton 01:38:17 f PompeyJ 139       29.2 FV45 62 01:37:17
433 Karen Clark 01:42:29 f PompeyJ 157       20.0 FV45 76 01:41:27
11 Nicky  Jones  01:44:23 f PompeyJ 162       17.4 FV45 79 01:43:22
294 Lorraine Stewart 01:45:07 f PompeyJ 163       16.9 FV45 80 01:43:50
323 Isabel Gardner 01:46:20 f PompeyJ 167       14.9 FV55 27 01:45:16
679 Donna Sheppard 01:49:06 f PompeyJ 170       13.3 FSnr 69 01:48:08
339 Lisa Neale 01:53:32 f PompeyJ 182       7.2 FV45 94 01:52:32
52 Gissele Leishman 01:56:25 f PompeyJ 185       5.6 FV45 98 01:55:09
19 Emily  Lambert  01:58:11 f PompeyJ 187       4.6 FV35 112 01:57:11
261 Deborah Winn 02:08:29 f PompeyJ 192       2.1 FV55 41 02:07:12
249 Alison Smith 02:08:31 f PompeyJ 193       1.5 FV45 105 02:07:15
363 Debbie Pentland 02:11:42 f PompeyJ 194       1.0 FV55 42 02:10:40
359 Robert Ford 01:00:44 m PompeyJ 23 A 183 c 91.9 MSnr 23 01:00:41
872 Richard Bailey 01:04:22 m PompeyJ 49       82.4 MV50 9 01:04:19
458 William Taylor 01:05:05 m PompeyJ 55       80.1 MSnr 42 01:05:01
675 Ian Hayward 01:05:06 m PompeyJ 56       79.8 MSnr 43 01:05:01
70 Jonny Langley 01:07:09 m PompeyJ 78 B 338 c 71.7 MSnr 54 01:07:02
703 George Garratt 01:07:35 m PompeyJ 84       69.5 MV50 15 01:07:28
681 Chris McCauley 01:07:47 m PompeyJ 86       68.8 MV40 28 01:07:38
168 Steven Wooldridge 01:08:15 m PompeyJ 90       67.3 MV50 18 01:08:07
235 Peter Birch 01:09:01 m PompeyJ 96 C 471 c 65.1 MV40 34 01:08:54
395 Neil Dyer 01:11:16 m PompeyJ 115       58.1 MV50 22 01:11:11
322 Lawrence Craddock 01:11:49 m PompeyJ 120       56.3 MSnr 82 01:11:37
364 Bob Pentland 01:13:51 m PompeyJ 140       48.9 MV60 4 01:13:36
668 Daniel Arnold 01:17:51 m PompeyJ 175       36.0 MSnr 57 01:17:42
672 Robert Langley 01:19:29 m PompeyJ 188       31.3 MSnr 79 01:19:25
454 Michael Rae 01:21:24 m PompeyJ 203       25.7 MV50 50 01:20:46
680 Ian Gregory 01:21:24 m PompeyJ 204       25.4 MV50 51 01:20:46
610 Mark Grandy 01:21:25 m PompeyJ 205       25.0 MSnr 120 01:20:47
53 Ian Jones 01:21:47 m PompeyJ 208       23.9 MV50 53 01:20:48
419 Jon Scott 01:31:09 m PompeyJ 247       9.6 MV40 122 01:30:06
313 Adam Swatton 01:44:27 m PompeyJ 265       2.9 MSnr 141 01:43:19
443 Mark Hamson 02:03:19 m PompeyJ 272       0.4 MV50 90 02:02:13
892 John Shepherd 02:08:33 m PompeyJ 273       0 MV60 29 02:07:16
534 Emma Jolley 01:01:27 f PortsmAC 1 A 0 n 100 FV35 1 01:01:24
397 Mark Hargreaves 01:06:47 m PortsmAC 71 A 0 n 74.3 MV60 2 01:06:41
196 Sue Stileman 01:34:27 f Romsey 123 A 0 n 37.4 FV45 49 01:33:25
337 Mark Stileman 01:02:00 m Romsey 34 A 0 n 87.9 MV50 4 01:01:56
794 Keith Morris 01:19:56 m Romsey 192       29.8 MV40 83 01:19:25
893 Rosie Eldridge 01:32:01 f Ryde 111 A 417 c 43.6 FV35 55 01:31:27
726 Sasha Levrier 01:38:41 f Ryde 140       28.7 FSnr 54 01:37:57
702 Kate Couch 01:46:17 f Ryde 166       15.4 FV35 96 01:45:31
789 Jake Brougham 01:02:01 m Ryde 35 A 595 i 87.5 MSnr 29 01:01:57
887 Peter Young 01:10:31 m Ryde 109       60.3 MV70 1 01:10:14
780 Joshua  Woodnutt 01:18:13 m Ryde 177       35.3 MSnr 62 01:17:40
34 Sian Thomas 01:03:23 f Salisbury 4 A 50 c 98.5 FSnr 2 01:03:19
300 Sarah Kemp 01:10:44 f Salisbury 16       92.3 FV35 4 01:10:32
652 Joanne Bailey 01:13:08 f Salisbury 30       85.1 FV55 1 01:12:56
650 Emma Clarke 01:14:50 f Salisbury 36 B 136 c 82.1 FSnr 13 01:14:38
837 Sarah Brewster 01:15:12 f Salisbury 37       81.5 FV45 10 01:14:59
116 Heather Hitchins 01:22:51 f Salisbury 63       68.2 FV45 20 01:22:22
467 Vicky  Robinson 01:23:16 f Salisbury 64       67.7 FV35 24 01:22:46
164 Marie Shone 01:24:14 f Salisbury 70       64.6 FV45 25 01:23:52
238 Linda Robson 01:26:06 f Salisbury 79       60.0 FV45 30 01:25:25
663 Rebecca Lockwood 01:28:43 f Salisbury 95       51.8 FV45 33 01:28:00
33 Jane Knight 01:31:22 f Salisbury 109       44.6 FV45 43 01:30:09
531 Helen Springett 01:31:27 f Salisbury 110       44.1 FV45 44 01:30:56
786 Jenny Robinson 01:32:29 f Salisbury 115       41.5 FSnr 38 01:32:03
517 Hannah Reeves 01:35:13 f Salisbury 126       35.9 FSnr 48 01:34:41
643 Elly Mills 01:35:14 f Salisbury 127       35.4 FV35 68 01:34:32
529 Jackie  Hassan  01:39:28 f Salisbury 143       27.2 FV35 83 01:38:57
17 Denise von Roretz 01:39:35 f Salisbury 144       26.7 FV55 20 01:38:53
1 Lesley Brown 01:41:35 f Salisbury 153       22.1 FV55 22 01:41:24
187 Jennifer Weatherburn 01:43:14 f Salisbury 159       19.0 FV45 77 01:42:06
523 Juliet Field 01:46:10 f Salisbury 165       15.9 FV45 83 01:45:38
803 Jodie  Waters 01:46:42 f Salisbury 168       14.4 FV35 97 01:46:17
760 Grace  Griffiths  01:46:43 f Salisbury 169       13.8 FSnr 66 01:46:18
29 Rachel  Levinsohn  01:52:07 f Salisbury 178       9.2 FV35 103 01:51:14
546 Kathryn Dreyer 02:11:46 f Salisbury 195       0.5 FV55 43 02:10:23
547 Jeanette Hardiman 02:11:46 f Salisbury 196       0 FV55 44 02:10:23
288 Christopher Southern 00:55:07 m Salisbury 4 A 40 c 98.9 MSnr 3 00:55:04
47 Shaun Brown 00:56:13 m Salisbury 7       97.8 MSnr 7 00:56:10
875 Aaron Wilson 00:56:57 m Salisbury 11       96.3 MSnr 11 00:56:53
530 James Hassan 00:59:14 m Salisbury 18       93.8 MSnr 17 00:59:11
854 Andrew Holme 01:00:27 m Salisbury 21 B 147 c 92.6 MSnr 20 01:00:23
838 Michael Brewster 01:02:47 m Salisbury 37       86.8 MV50 5 01:02:39
210 Lee Syrett 01:03:34 m Salisbury 43       84.6 MSnr 34 01:03:30
119 Richard Davidson 01:03:55 m Salisbury 46       83.5 MV40 13 01:03:51
886 Peter Callanan 01:05:43 m Salisbury 62       77.6 MV40 18 01:05:29
635 Philip Smith 01:06:46 m Salisbury 70       74.6 MV50 12 01:06:41
691 Nicholas Cooke 01:06:51 m Salisbury 72       73.9 MV40 24 01:05:55
112 Mike White 01:06:54 m Salisbury 73       73.5 MV40 25 01:06:44
132 Craig Weatherburn 01:07:19 m Salisbury 80       71.0 MSnr 55 01:07:08
633 Ben Saunby 01:07:30 m Salisbury 83       69.9 MSnr 56 01:07:15
617 Ian Lawrence 01:07:43 m Salisbury 85       69.1 MSnr 57 01:07:35
122 Nick Hudson 01:08:26 m Salisbury 92       66.5 MV40 30 01:08:15
63 John Duffy 01:09:43 m Salisbury 103       62.5 MV40 37 01:08:44
728 Andrew Budgell 01:09:46 m Salisbury 104       62.1 MV40 38 01:09:36
26 Jason Bennett 01:11:15 m Salisbury 114       58.5 MV40 41 01:10:21
659 James Ballard 01:11:17 m Salisbury 116       57.7 MV40 42 01:10:18
39 Phil Perry 01:13:30 m Salisbury 136       50.4 MV50 30 01:13:18
183 James Welsh 01:14:46 m Salisbury 153       44.1 MSnr 96 01:13:48
700 Richard Larcombe 01:14:56 m Salisbury 155       43.4 MV40 59 01:14:44
660 Gary Domoney 01:16:01 m Salisbury 163       40.4 MV40 66 01:15:33
707 Steven Mitchell 01:16:20 m Salisbury 164       40.1 MV40 68 01:16:06
217 Matt Harris 01:17:12 m Salisbury 171       37.5 MV40 51 01:16:14
228 Derek Wood 01:18:06 m Salisbury 176       35.7 MV40 60 01:17:48
9 Jonathan Kershaw 01:19:23 m Salisbury 187       31.6 MV40 78 01:19:10
725 Nicolas Willetts 01:19:45 m Salisbury 191       30.1 MV40 82 01:19:02
21 Terry Brown 01:20:03 m Salisbury 193       29.4 MV60 84 01:19:34
618 Timothy  Phillips 01:21:39 m Salisbury 207       24.3 MV40 93 01:21:11
28 Barry Vincent 01:23:21 m Salisbury 214       21.7 MV50 55 01:22:53
646 Christian Chandler 01:23:35 m Salisbury 217       20.6 MV40 102 01:23:00
136 Paul Slaughter 01:25:55 m Salisbury 230       15.8 MV50 61 01:25:24
757 Paul Woodhouse 01:27:10 m Salisbury 235       14.0 MV50 64 01:26:14
111 John Turley 01:31:36 m Salisbury 248       9.2 MV60 23 01:31:22
662 David Smith 01:35:20 m Salisbury 255       6.6 MV50 82 01:34:04
27 Norbert Weber 01:37:24 m Salisbury 258       5.5 MV40 129 01:36:58
403 Richard Bidmead 01:58:07 m Salisbury 271       0.7 MSnr 148 01:56:52
203 Fiona Donovan 01:35:21 f Solent Sis 128 A 0 n 34.9 FV45 53 01:34:45
309 Sarah Kingston 01:02:59 f So'ton AC 3 A 39 c 99.0 FSnr 1 01:02:54
744 Tracey Corker 01:09:25 f So'ton AC 14       93.3 FV45 5 01:09:20
613 Hannah Polden 01:11:39 f So'ton AC 22       89.2 FSnr 8 01:11:33
626 Minna Jones-Walters 01:11:58 f So'ton AC 25       87.7 FSnr 11 01:11:53
753 Richard Waldron 00:54:08 m So'ton AC 1 A 18 c 100 MSnr 1 00:54:06
850 Max Costley 00:54:52 m So'ton AC 3       99.3 MSnr 2 00:54:50
584 Sam Costley 00:55:22 m So'ton AC 5       98.5 MSnr 4 00:55:19
314 David Coak 00:56:42 m So'ton AC 9       97.1 MSnr 9 00:56:40
237 Paul Johnson 01:03:24 m So'ton AC 42 B 291 c 84.9 MV50 6 01:03:18
767 Jon  Ward 01:06:07 m So'ton AC 65       76.5 MV40 21 01:05:56
649 Guy Brown 01:07:53 m So'ton AC 87       68.4 MV50 16 01:07:47
348 Mike Hodges 01:09:02 m So'ton AC 97       64.7 MV40 35 01:08:56
7 Rob Benham 01:14:14 m Spitfires 146 A 0 n 46.7 MV40 53 01:13:09
442 Victoria Shaw 01:07:28 f Stubb'ton 9 A 39 c 95.9 FSnr 5 01:07:16
475 Nikki Roebuck 01:08:53 f Stubb'ton 11       94.9 FV35 3 01:08:43
761 Hollie Smith 01:11:04 f Stubb'ton 19       90.8 FSnr 7 01:10:47
43 Amy Fox 01:22:07 f Stubb'ton 60 B 248 c 69.7 FV35 23 01:21:17
42 Katherine Chamberlain 01:27:58 f Stubb'ton 89       54.9 FV35 47 01:27:09
346 Becca White 01:29:55 f Stubb'ton 99       49.7 FV45 36 01:29:40
92 Katherine Chowns 01:36:40 f Stubb'ton 133 C 425 c 32.3 FSnr 51 01:35:22
658 Samantha Stockwell 01:39:48 f Stubb'ton 145       26.2 FV45 66 01:38:46
219 Jules Dinwoodie 01:40:53 f Stubb'ton 147       25.1 FV55 21 01:40:07
778 Janet Shaw 01:41:11 f Stubb'ton 150 D 460 c 23.6 FV45 72 01:40:01
41 Sara McRitchie 01:41:33 f Stubb'ton 152       22.6 FV35 94 01:40:45
876 Julia Webb 01:43:01 f Stubb'ton 158       19.5 FV55 23 01:41:57
60 Donne Caswell 01:54:50 f Stubb'ton 184       6.2 FSnr 74 01:54:31
107 Rob Arkell 00:56:16 m Stubb'ton 8 A 171 c 97.4 MSnr 8 00:56:14
657 Andrew Stockwell 01:03:00 m Stubb'ton 40       85.7 MV40 10 01:02:50
466 Daniel Foster 01:05:08 m Stubb'ton 57       79.4 MSnr 44 01:04:55
91 Richard Chowns 01:06:13 m Stubb'ton 66       76.1 MSnr 47 01:06:02
368 Darren Tanner 01:14:08 m Stubb'ton 143 B 709 c 47.8 MV40 52 01:13:51
885 Simon Bacon 01:15:31 m Stubb'ton 161       41.2 MV40 63 01:14:40
766 Jamie Earley 01:20:43 m Stubb'ton 196       28.3 MSnr 88 01:19:56
266 George Howarth 01:21:49 m Stubb'ton 209       23.5 MV60 13 01:21:01
347 Andy White 01:27:57 m Stubb'ton 240 C 1016 i 12.1 MV40 114 01:27:42
889 Carl Schafer 01:32:02 m Stubb'ton 249       8.8 MV50 77 01:31:10
779 Cliff Shaw 01:33:35 m Stubb'ton 253       7.4 MV50 81 01:32:25
607 Jacquie Barlow 01:19:18 f Totton 48 A 256 c 75.9 FV35 20 01:18:52
93 Virginia Collins 01:24:50 f Totton 74       62.6 FV55 9 01:24:37
30 Ann-marie Vanderplank 01:36:42 f Totton 134       31.8 FV35 73 01:35:50
178 Alison  Kaines  01:37:37 f Totton 137 B 488 i 30.3 FV45 58 01:36:23
104 Deborah Garrett 01:41:36 f Totton 154       21.5 FV45 73 01:40:22
570 Daniel Hull 01:05:01 m Totton 54 A 424 c 80.5 MSnr 41 01:04:53
272 Neil White 01:10:36 m Totton 111       59.6 MSnr 74 01:10:23
398 Brian Frampton 01:11:50 m Totton 121       55.9 MV50 23 01:11:40
516 Robbie Barlow 01:13:43 m Totton 138       49.6 MSnr 92 01:13:33
818 Tony  Lees 01:14:12 m Totton 145 B 732 c 47.1 MV50 34 01:14:03
437 Geoffrey Willis 01:16:36 m Totton 169       38.2 MV40 44 01:16:26
127 Andrew Warren 01:19:30 m Totton 189       30.9 MSnr 80 01:19:11
311 Christopher Hutchinson 01:25:43 m Totton 229       16.2 MV60 18 01:25:22
515 Rob Barlow 01:27:44 m Totton 239       12.5 MV40 113 01:26:52
96 Paul Gale 01:43:08 m Totton 263       3.7 MV40 138 01:41:55
325 Helen Boiling 01:29:27 f Victory 97 A 363 c 50.8 FV45 35 01:28:49
542 Lucy Cowlin  01:34:34 f Victory 124       36.9 FV45 50 01:33:55
320 Lisa  Emson 01:39:18 f Victory 142       27.7 FV35 82 01:38:32
848 Rebecca Ralf 01:43:35 f Victory 161 B 504 c 17.9 FSnr 62 01:42:51
327 Rachel  Jarvis 01:46:02 f Victory 164       16.4 FV55 26 01:45:23
360 Marilyn Crocker 01:52:31 f Victory 179       8.7 FV65 7 01:51:47
575 Nicola Stott 01:56:25 f Victory 186 C 573 i 5.1 FV45 99 01:55:34
356 Bridget Main 01:58:47 f Victory 190       3.1 FV45 100 01:57:56
815 Daniel Bailey 00:58:40 m Victory 16 A 464 c 94.5 MSnr 15 00:58:38
371 Darren Knight 01:13:11 m Victory 135       50.7 MSnr 91 01:12:36
548 Richard Turner 01:15:02 m Victory 156       43.0 MV50 38 01:14:36
287 David Lown 01:15:02 m Victory 157       42.6 MV40 60 01:14:36
197 Will Hahn 01:19:36 m Victory 190 B 808 c 30.5 MV40 81 01:18:59
170 Terry Healy 01:20:43 m Victory 197       27.9 MV60 89 01:20:06
831 Martin Coles 01:21:02 m Victory 199       27.2 MV60 91 01:20:26
376 Ali McNiff 01:24:07 m Victory 222       18.8 MSnr 129 01:23:29
793 Kathy Bailey  01:02:29 f Winchester 2 A 15 c 99.5 FV45 1 01:02:25
490 Susy Perry 01:06:00 f Winchester 5       97.9 FV35 2 01:05:53
502 Imogen Emmett 01:06:55 f Winchester 8       96.4 FSnr 4 01:06:46
730 Sonia Rushby 01:09:50 f Winchester 15 B 53 c 92.8 FV45 6 01:09:43
150 Karen Hazlitt 01:10:47 f Winchester 17       91.8 FV45 7 01:10:26
344 Jo Jefferies 01:11:34 f Winchester 21       89.7 FV35 8 01:11:12
463 Lynne Whitaker 01:13:12 f Winchester 31 C 162 c 84.6 FV55 2 01:12:57
460 Joanna Curtis 01:22:06 f Winchester 59       70.3 FV55 8 01:21:47
763 Lynn McKeague 01:24:29 f Winchester 72       63.6 FSnr 23 01:23:52
181 Melissa Callister 01:25:18 f Winchester 76       61.5 FV45 28 01:24:40
362 Carrie Oliver 01:29:47 f Winchester 98       50.3 FV55 13 01:29:08
755 Gill Goodwin 01:35:35 f Winchester 129       34.4 FV65 2 01:34:53
129 Sarah Aldridge 02:04:15 f Winchester 191       2.6 FSnr 78 02:02:56
498 James Moore 00:59:28 m Winchester 19 A 130 c 93.4 MSnr 19 00:59:25
770 Richard Bidgood 00:59:36 m Winchester 20       93.0 MV40 3 00:59:32
813 Nick Wood 01:01:07 m Winchester 28       90.1 MV40 5 01:01:03
326 Edward Gurney 01:05:50 m Winchester 63       77.2 MV40 19 01:05:42
361 Steve Oliver 01:07:16 m Winchester 79 B 446 c 71.3 MV50 13 01:07:07
156 Saul Duck 01:11:20 m Winchester 117       57.4 MV40 43 01:11:04
291 Patrick Warburton 01:11:59 m Winchester 124       54.8 MSnr 84 01:11:27
392 Miguel Flores 01:12:13 m Winchester 126       54.0 MV40 46 01:11:46
764 Steve Cluett 01:13:35 m Winchester 137 C 607 c 50.0 MV50 31 01:13:13
427 Mark Wilson 01:14:35 m Winchester 151       44.9 MV40 57 01:14:23
223 Colin McManus 01:15:14 m Winchester 159       41.9 MSnr 97 01:15:00
754 Steve Goodwin  01:15:14 m Winchester 160       41.5 MV60 5 01:14:51
399 Leon Jones 01:16:55 m Winchester 170       37.9 MV40 47 01:16:34
79 JJ Heath-Caldwell 01:18:19 m Winchester 178       34.9 MV50 63 01:17:51
301 Richard Munro 01:19:02 m Winchester 182       33.5 MV50 70 01:18:39